Location: ??????
(55.7522°N, 37.6156°E)
Time: 12:44:36
(UTC+00:00)

USA 229 DEB - Pass Details

Date: 16 December 2025
Orbit: 844 x 1364 km, 63.4° (Epoch: 10 January)

Event Time Altitude Azimuth Distance (km) Brightness Sun altitude
Exits shadow 00:53:51 46° 53° (NE) 1,547 4.7 -40.1°
Drops below altitude 10° 00:59:57 10° 93° (E) 3,244 6.8 -39.3°
Sets 01:03:01 0° 98° (E) 4,272 7.6 -38.9°
